Location: Clermont
(50.2608°N, 4.3172°E)
Time: 04:04:33
(UTC+00:00)

Cosmos 1486 Rocket - Pass Details

Date: 13 August 2020
Orbit: 759 x 783 km, 74.1° (Epoch: 19 September)

Event Time Altitude Azimuth Distance (km) Brightness Sun altitude
Exits shadow 22:33:46 63° 150° (SSE) 846 3.9 -23.4°
Maximum altitude 22:34:20 69° 110° (ESE) 814 3.9 -23.5°
Drops below altitude 10° 22:39:31 10° 28° (NNE) 2,300 7.0 -23.7°
Sets 22:41:54 0° 26° (NNE) 3,230 7.9 -23.9°
